Regional Weather Roundup
Issued by NWS

Home | Current Version | Previous Version | Graphics & Text | Print | Product List | Glossary On
Versions: 1 2 3 4 5 6 7 8 9 10 11 12 13 14 15 16 17 18 19 20 21 22 23 24 25 26 27 28 29 30 31 32 33 34 35 36 37 38 39 40 41 42 43 44 45 46 47 48 49 50
000
ASUS45 KBOI 311610
RWRID

IDAHO REGIONAL WEATHER ROUNDUP
NATIONAL WEATHER SERVICE BOISE ID
1000 AM MDT MON AUG 31 2015

NOTE: "FAIR" INDICATES FEW OR NO CLOUDS BELOW 12000 FEET
WITH NO SIGNIFICANT WEATHER AND/OR OBSTRUCTIONS TO VISIBILITY

IDZ012-014-311700-
SOUTHWEST IDAHO


CITY           SKY/WX    TMP DP  RH WIND       PRES   REMARKS
BOISE          SUNNY     61  43  51 W6        30.10S
CALDWELL       SUNNY     63  39  42 NW6       30.12R
MOUNTAIN HOME  SUNNY     64  41  43 W3        30.10R
$$

IDZ016-017-311700-
SOUTHCENTRAL IDAHO


CITY           SKY/WX    TMP DP  RH WIND       PRES   REMARKS
BURLEY         SUNNY     62  42  47 W8        30.13S
JEROME         SUNNY     61  40  45 SW7       30.14S
TWIN FALLS     SUNNY     67  35  30 SW7       30.14S
$$

IDZ019>023-311700-
SOUTHEAST IDAHO


CITY           SKY/WX    TMP DP  RH WIND       PRES   REMARKS
IDAHO FALLS    MOSUNNY   61  40  45 SW18      30.14S
POCATELLO      SUNNY     65  39  38 SW13      30.15S
REXBURG        SUNNY     62  35  36 SW16      30.14S
$$

IDZ006-010-011-018-031-032-311700-
CENTRAL IDAHO MOUNTAINS


CITY           SKY/WX    TMP DP  RH WIND       PRES   REMARKS
MCCALL         MOSUNNY   49  40  71 CALM      30.14S
HAILEY         MOSUNNY   57  36  44 W7        30.17S
STANLEY          N/A     45  31  58 CALM      30.21S
SALMON         SUNNY     54  39  58 N3        30.10F
CHALLIS        SUNNY     56  38  50 NE3       30.13F
$$

IDZ002-004-006-007-026-311700-
NORTHERN IDAHO


CITY           SKY/WX    TMP DP  RH WIND       PRES   REMARKS
LEWISTON       SUNNY     63  50  62 VRB5      30.05F
LOWELL           N/A     55  51  86 CALM      30.11F
COEUR D`ALENE  CLOUDY    57  46  67 S13       30.05S
MULLAN PASS    PTSUNNY   41  37  86 SW8G20    30.10S
$$



USA.gov is the U.S. government's official web portal to all federal, state and local government web resources and services.